Location: Titusville
(28.6119°N, 80.8078°W)
Time: 15:19:23
(UTC-05:00)

ISS - Visible Passes

Search period start: 18 November 2018 00:00
Search period end: 28 November 2018 00:00
Orbit: 401 x 409 km, 51.6° (Epoch: 18 November)

Date Brightness Start Highest point End Pass type
(mag) Time Alt. Az. Time Alt. Az. Time Alt. Az.
18 Nov -2.1 05:43:30 18° SW 05:43:37 18° SW 05:45:58 10° S visible
19 Nov -1.1 04:54:13 14° SSE 04:54:13 14° SSE 04:54:46 10° SSE visible
19 Nov -0.4 19:47:11 10° SW 19:47:13 10° SW 19:47:13 10° SW visible
20 Nov -3.3 18:55:09 10° SSW 18:57:51 47° SSE 18:57:51 47° SSE visible
21 Nov -2.3 18:03:44 10° S 18:06:19 22° SE 18:08:23 13° E visible
21 Nov -0.7 19:40:12 10° W 19:41:05 15° WNW 19:41:05 15° WNW visible
22 Nov -2.9 18:47:24 10° WSW 18:50:31 42° NW 18:51:31 31° N visible
23 Nov -3.9 17:55:09 10° SW 17:58:22 77° SE 18:01:38 10° NE visible
24 Nov -1.3 18:40:40 10° W 18:42:50 16° NW 18:44:47 11° N visible
25 Nov -2.3 17:47:35 10° WSW 17:50:32 32° NW 17:53:30 10° NNE visible
